Regional Weather Roundup
Issued by NWS

Home | Current Version | Previous Version | Graphics & Text | Print | Product List | Glossary On
Versions: 1 2 3 4 5 6 7 8 9 10 11 12 13 14 15 16 17 18 19 20 21 22 23 24 25 26 27 28 29 30 31 32 33 34 35 36 37 38 39 40 41 42 43 44 45 46 47 48 49 50
307
ASUS45 KCYS 111610
RWRWY

WYOMING REGIONAL WEATHER ROUNDUP
NATIONAL WEATHER SERVICE CHEYENNE WY
900 AM MST THU FEB 11 2016

NOTE:  "FAIR" INDICATES FEW OR NO CLOUDS BELOW 12,000 FEET
WITH NO SIGNIFICANT WEATHER AND/OR OBSTRUCTIONS TO VISIBILITY.

WYZ001-111700-
YELLOWSTONE NATIONAL PARK

CITY           SKY/WX    TMP DP  RH WIND       PRES   REMARKS
LK YELLOWSTONE   N/A     23  17  78 CALM      30.36R
W YELLOWSTONE  NOT AVBL

$$
WYZ002>013-054>058-071-098>099-111700-
NORTHERN WYOMING

CITY           SKY/WX    TMP DP  RH WIND       PRES   REMARKS
JACKSON        SUNNY     12  12 100 CALM      30.38R
CODY           FAIR      48  21  34 SE5       30.16R
GREYBULL       FAIR      33  27  78 CALM      30.15R
WORLAND        FAIR      34  28  79 CALM      30.14R
SHERIDAN       PTSUNNY   50  23  34 NW20      30.08S
BUFFALO        FAIR      47  25  42 N18G28    30.11R
GILLETTE       FAIR      47  25  42 W13       30.08R
HULETT         FAIR      45  28  53 NW8G17    30.06R
NEWCASTLE      FAIR      36  28  75 W5        30.07R WCI  32

$$
WYZ014>020-022>026-101>103-111700-
CENTRAL WYOMING

CITY           SKY/WX    TMP DP  RH WIND       PRES   REMARKS
BIG PINEY      FAIR      20  14  77 W5        30.35R WCI  13
PINEDALE       FAIR      19  14  79 CALM      30.35R
DUBOIS         FAIR      41  18  38 NW29G35   30.20S
LANDER         FAIR      35  17  47 W5        30.16S WCI  31
RIVERTON       FAIR      35  19  52 SW13      30.16S WCI  26
CASPER         FAIR      39  21  48 SW23G36   30.14R WCI  28
DOUGLAS        FAIR      42  25  50 NW12        N/A

$$
WYZ021-027>030-104>119-111700-
SOUTHERN WYOMING

CITY           SKY/WX    TMP DP  RH WIND       PRES   REMARKS
EVANSTON       FAIR      26  11  52 SW15      30.38S WCI  14
FORT BRIDGER   SUNNY     34  19  55 W21       30.37S WCI  22
ROCK SPRINGS   FAIR      33  16  49 SW9       30.36R WCI  25
DIXON          FAIR      17  10  74 S5        30.39F WCI  10
RAWLINS        FAIR      32  19  58 W22G32    30.26R WCI  19
SARATOGA       FAIR      37  19  48 SW9       30.31R WCI  31
LARAMIE        FAIR      41  17  38 SW16G31   30.20S
CHEYENNE       FAIR      48  17  29 W28G37    30.11S
TORRINGTON     FAIR      49  21  33 W15G21    30.07R
PINE BLUFFS    FAIR      45  23  42 W5        30.12S

$$




USA.gov is the U.S. government's official web portal to all federal, state and local government web resources and services.